Flag for Malta Weather past 2 weeks in Valletta, Malta

Now
66 °F

Passing clouds.


Feels Like: 66 °F
Forecast: 59 / 75 °F
Wind: 3 mph from South

Location: Luqa

Current Time: May 30, 2015 at 8:51:58 PM

Latest Report: May 30, 2015 at 8:15 PM


Visibility: N/A

Pressure: 30.04 "Hg

Humidity: 73%

Dew point: 57 °F

Location of VallettaLocation

Historic Weather in Valletta — Graph

°F

Valletta temperature yesterday

Maximum temperature yesterday: 75 °F (at 12:45 PM)
Minimum temperature yesterday: 59 °F (at 4:45 AM)
Average temperature yesterday: 67 °F

Past Weeks' High & Low Weather Summary

 TemperatureHumidityPressure
High79 °F (May 16, 11:15 AM)100% (May 20, 3:15 AM)30.09 "Hg (May 20, 3:15 AM)
Low57 °F (May 18, 8:15 AM)38% (May 29, 10:45 AM)29.80 "Hg (May 18, 5:15 AM)
Average67 °F73%29.92 "Hg
* Reported May 15 7:15 PM — May 30 7:45 PM, Valletta, Weather by CustomWeather, © 2015

Note: Actual official high and low records may vary slightly from our data, if they occured in-between our weather recording intervals... More about our weather records

Advertising

Valletta weather history for previous 24 hours

 ConditionsComfort  
Time TempWeatherWind HumidityBarometerVisibility
7:45 PM
Sat, May 30
66 °FPassing clouds.6 mph73%30.04 "HgN/A
7:15 PM68 °FPassing clouds.6 mph69%30.01 "HgN/A
6:45 PM68 °FPassing clouds.7 mph64%30.01 "HgN/A
6:15 PM68 °FPassing clouds.6 mph64%30.01 "HgN/A
5:45 PM70 °FPassing clouds.6 mph60%30.01 "HgN/A
5:15 PM70 °FPassing clouds.10 mph64%30.04 "HgN/A
4:45 PM70 °FSunny.13 mph64%30.04 "Hg10 mi
4:15 PM72 °FPassing clouds.10 mph57%30.04 "HgN/A
3:45 PM73 °FSunny.10 mph47%30.01 "Hg10 mi
3:15 PM73 °FPassing clouds.12 mph50%30.01 "HgN/A
2:45 PM75 °FPassing clouds.7 mph47%30.01 "HgN/A
2:15 PM73 °FPassing clouds.8 mph53%30.04 "HgN/A
1:45 PM73 °FPassing clouds.6 mph53%30.04 "HgN/A
1:15 PM72 °FSunny.2 mph50%30.04 "Hg10 mi
12:45 PM73 °FPassing clouds.8 mph53%30.07 "HgN/A
12:15 PM73 °FPassing clouds.8 mph50%30.09 "HgN/A
11:45 AM72 °FPassing clouds.8 mph53%30.07 "HgN/A
11:15 AM72 °FSunny.3 mph47%30.07 "Hg10 mi
10:45 AM70 °FSunny.5 mph50%30.07 "Hg10 mi
10:15 AM70 °FPassing clouds.6 mph53%30.07 "HgN/A
9:45 AM68 °FPassing clouds.7 mph60%30.04 "HgN/A
9:15 AM68 °FPassing clouds.7 mph64%30.04 "HgN/A
8:45 AM66 °FPassing clouds.7 mph78%30.04 "HgN/A
8:15 AM66 °FPassing clouds.6 mph78%30.04 "HgN/A
7:45 AM64 °FPassing clouds.6 mph83%30.04 "HgN/A
7:15 AM63 °FSunny.5 mph88%30.04 "Hg10 mi
6:45 AM59 °FClear.5 mph94%30.01 "Hg10 mi
6:15 AM57 °FClear.3 mph94%30.01 "Hg10 mi
5:45 AM57 °FClear.1 mph88%30.01 "Hg10 mi
5:15 AM57 °FClear.2 mph94%30.01 "Hg10 mi
4:45 AM57 °FClear.2 mph94%30.01 "Hg10 mi
4:15 AM57 °FClear.1 mph94%30.01 "Hg10 mi
3:45 AM57 °FClear.2 mph94%30.01 "Hg10 mi
3:15 AM59 °FClear.2 mph88%30.01 "Hg10 mi
2:45 AM57 °FClear.1 mph94%30.04 "Hg10 mi
2:15 AM59 °FClear.3 mph88%30.04 "Hg10 mi
1:45 AM59 °FClear.3 mph88%30.04 "Hg10 mi
1:15 AM59 °FClear.2 mph88%30.04 "Hg10 mi
12:45 AM61 °FClear.1 mph83%30.04 "Hg10 mi
12:15 AM61 °FClear.2 mph77%30.04 "Hg10 mi
11:45 PM
Fri, May 29
61 °FClear.2 mph83%30.04 "Hg10 mi
11:15 PM63 °FPassing clouds.3 mph77%30.04 "HgN/A
10:45 PM61 °FClear.2 mph77%30.04 "Hg10 mi
10:15 PM63 °FClear.No wind77%30.04 "Hg10 mi
9:45 PM63 °FClear.3 mph77%30.04 "Hg10 mi
9:15 PM64 °FClear.5 mph73%30.04 "Hg10 mi
8:45 PM64 °FSunny.3 mph78%30.04 "Hg10 mi
8:15 PM64 °FSunny.5 mph73%30.04 "Hg10 mi
Weather by CustomWeather, © 2015

See weather overviewHow to use our weather pages